This is the latest recevied weather packets stored in our database for station/object W7TTE. If no packets are shown the sender has not sent any weather packets the latest 10 day(s).
| Time | Temp. | Humidity | Pressure | Rain* | Wind** | Luminosity | Snow |
|---|---|---|---|---|---|---|---|
| 1777734825 | 26.67° C | 24% | 1015.6 hPa | 0 mm | - | 312 W/m² | - |
| 1777734523 | 26.11° C | 24% | 1015.7 hPa | 0 mm | - | 296 W/m² | - |
| 1777734219 | 25° C | 24% | 1015.6 hPa | 0 mm | - | 280 W/m² | - |
| 1777733916 | 25° C | 24% | 1015.6 hPa | 0 mm | - | 262 W/m² | - |
| 1777733612 | 23.89° C | 26% | 1015.7 hPa | 0 mm | - | 247 W/m² | - |
| 1777733309 | 23.89° C | 26% | 1015.7 hPa | 0 mm | - | 235 W/m² | - |
| 1777733006 | 23.33° C | 25% | 1015.6 hPa | 0 mm | - | 222 W/m² | - |
| 1777732702 | 23.33° C | 26% | 1015.6 hPa | 0 mm | - | 206 W/m² | - |
| 1777732399 | 22.78° C | 26% | 1015.5 hPa | 0 mm | - | 191 W/m² | - |
| 1777732097 | 22.78° C | 26% | 1015.5 hPa | 0 mm | - | 177 W/m² | - |
| 1777731794 | 22.22° C | 26% | 1015.6 hPa | 0 mm | - | 163 W/m² | - |
| 1777731490 | 21.67° C | 28% | 1015.4 hPa | 0 mm | - | 150 W/m² | - |
| 1777731189 | 21.11° C | 27% | 1015.4 hPa | 0 mm | - | 137 W/m² | - |
| 1777730886 | 20° C | 30% | 1015.4 hPa | 0 mm | - | 124 W/m² | - |
| 1777730584 | 20° C | 30% | 1015.3 hPa | 0 mm | - | 57 W/m² | - |
| 1777730280 | 19.44° C | 31% | 1015.3 hPa | 0 mm | - | 39 W/m² | - |
| 1777729976 | 19.44° C | 30% | 1015 hPa | 0 mm | - | 38 W/m² | - |
| 1777729672 | 18.89° C | 30% | 1015.1 hPa | 0 mm | - | 36 W/m² | - |
| 1777729369 | 18.89° C | 30% | 1015.1 hPa | 0 mm | - | 34 W/m² | - |
| 1777729066 | 18.33° C | 31% | 1014.8 hPa | 0 mm | - | 32 W/m² | - |
| 1777728763 | 18.33° C | 31% | 1014.8 hPa | 0 mm | - | 30 W/m² | - |
| 1777728459 | 18.33° C | 32% | 1014.7 hPa | 0 mm | - | 28 W/m² | - |
| 1777728157 | 18.33° C | 30% | 1014.5 hPa | 0 mm | - | 26 W/m² | - |
| 1777727854 | 17.78° C | 30% | 1014.7 hPa | 0 mm | - | 23 W/m² | - |
| 1777727551 | 17.78° C | 36% | 1014.4 hPa | 0 mm | - | 21 W/m² | - |
* Rain latest hour (hover to see other rain measurements)
** Current wind speed in m/s (hover to see current wind gust speed)